Vorticity
4 8 13 14 15 20 1 18 20 30 18 17 4 -13 8 -7 37 26 17 5 9 2 10 12 8 9 29 15 16 11 9 7 6 6 6 5 5 5 5 5 6 6 7 5 6 4 3
6 7 11 17 4 12 10 19 23 6 18 4 13 11 2 34 24 19 28 -32 40 18 -7 15 45 27 21 9 14 13 7 8 6 7 7 6 4 5 6 5 6 6 6 6 6 5 5
17 6 10 11 5 4 11 7 16 6 7 9 10 5 12 15 13 64 -10 -42 30 53 31 18 27 20 12 14 14 13 6 6 6 8 6 5 4 5 5 5 6 6 5 5 5 5 4
21 9 8 8 6 5 3 10 11 11 7 6 18 8 -8 15 22 13 26 41 21 24 14 31 17 13 12 15 16 9 7 6 8 8 6 5 5 6 5 6 6 6 6 5 5 5 4
9 23 6 8 7 9 6 11 7 10 11 12 13 7 14 21 3 15 21 12 17 19 16 13 13 7 13 9 11 7 6 6 7 7 7 6 6 4 6 5 5 5 5 5 5 5 5
7 8 22 9 5 6 6 12 15 2 5 18 17 15 18 3 17 22 39 35 15 15 10 14 10 9 13 9 9 7 6 7 8 7 7 6 6 5 5 5 4 4 5 5 5 5 5
10 8 8 20 10 6 6 6 2 21 12 9 9 10 12 12 27 8 12 13 12 15 10 14 12 9 11 9 9 7 8 7 7 7 7 7 5 5 5 5 5 4 5 5 5 5 5
7 9 9 8 20 11 6 4 4 2 30 8 21 7 7 9 8 11 12 12 10 7 21 10 8 6 7 8 8 7 6 6 6 7 7 6 5 6 6 5 6 6 6 5 5 5 5
3 6 8 10 9 13 14 8 4 5 4 9 32 12 31 6 8 8 12 11 10 28 5 7 12 9 9 6 9 8 7 8 9 8 7 6 6 5 6 6 6 6 5 5 5 5 5
3 6 4 6 9 10 9 15 10 5 5 5 2 11 5 10 9 10 7 9 20 12 5 16 6 7 8 8 5 8 8 7 9 7 8 7 6 6 5 4 4 4 4 4 4 3 5
4 4 4 6 5 8 11 6 17 11 7 5 7 2 17 5 10 10 7 19 9 11 9 9 5 6 6 7 4 4 8 8 6 7 7 3 5 5 5 5 4 5 5 3 4 7 4
4 5 4 5 6 6 7 12 9 12 16 9 6 7 6 12 7 9 11 7 9 14 24 6 9 8 4 4 3 3 4 5 6 3 5 6 5 5 4 4 4 3 6 8 8 7 2
5 5 5 6 6 7 6 5 11 10 9 19 9 5 6 10 6 2 3 8 4 12 8 8 10 7 5 2 3 2 3 3 3 3 3 3 3 3 4 6 7 8 8 6 4 4 3
5 4 3 3 6 7 8 8 5 9 12 9 17 11 7 6 6 5 3 11 13 15 11 6 6 6 4 3 5 4 4 3 4 4 4 5 7 6 8 7 7 5 4 3 4 6 8
3 3 2 2 4 9 6 8 13 11 10 10 6 14 14 10 7 11 5 13 12 7 8 11 10 9 7 8 4 7 6 5 5 5 5 9 8 8 7 4 1 3 6 8 12 10 9
5 4 5 6 2 13 8 8 16 11 14 13 9 6 12 20 9 4 7 8 6 7 7 5 9 11 10 10 7 11 10 11 10 9 8 6 5 5 5 6 8 9 8 11 11 11 11
5 5 1 3 7 13 12 9 13 19 19 11 15 9 6 11 13 17 14 7 5 8 8 5 2 4 4 4 5 4 4 3 3 3 3 4 5 8 11 11 10 13 15 14 10 8 10
6 7 5 9 9 9 11 11 14 13 15 20 16 15 7 8 7 13 13 12 18 14 6 6 8 8 6 7 8 7 7 7 8 8 9 9 8 9 9 17 12 9 11 10 7 6 7
5 3 4 8 12 9 10 8 10 12 8 13 12 19 22 11 7 4 5 12 15 12 14 23 17 11 7 6 7 7 9 10 10 10 12 12 15 15 8 6 10 6 4 5 7 7 7
6 4 5 7 9 11 15 15 7 7 5 6 7 11 16 22 15 9 8 3 3 5 9 11 12 14 15 16 17 17 17 17 18 16 12 10 10 9 9 5 3 5 5 4 4 4 3
3 4 4 3 3 8 11 11 10 5 3 2 4 2 8 11 7 12 21 15 10 8 3 2 3 4 5 5 5 5 5 5 4 4 4 4 5 4 4 3 4 4 4 4 5 4 4
3 2 1 2 3 4 8 12 7 7 3 6 6 3 1 4 11 8 6 8 21 17 10 11 12 7 4 2 3 2 2 3 3 3 3 3 3 3 4 3 2 3 5 3 4 4 4
6 0 4 4 3 4 4 7 16 5 9 0 2 -0 2 3 2 5 5 6 7 10 13 16 16 16 19 16 12 10 10 8 7 6 6 7 7 7 8 8 7 10 14 12 10 11 10
5 6 5 6 6 8 2 1 6 12 8 6 10 5 1 2 1 2 -0 -1 0 1 2 1 3 6 8 10 15 21 21 18 18 15 15 14 13 11 11 12 11 10 13 16 13 9 7
4 6 5 6 4 2 7 4 1 6 7 11 7 3 5 6 4 4 3 6 6 5 5 5 5 3 3 1 1 -0 1 -0 -1 2 5 6 6 3 3 4 6 5 8 8 8 11 14
8 5 4 4 2 3 4 2 7 3 2 7 7 4 7 3 2 2 2 1 0 -2 -0 3 6 7 8 5 5 5 3 5 4 2 2 2 3 3 4 1 3 6 6 3 8 4 0
6 6 2 2 3 3 4 4 5 6 5 4 6 4 6 6 7 8 7 7 6 2 2 2 5 7 6 6 5 2 7 6 4 3 5 4 2 3 4 4 4 2 2 0 1 6 -1
4 3 3 5 5 4 7 6 9 6 7 8 4 6 3 5 3 4 5 7 5 2 3 3 3 5 5 6 5 4 4 4 4 4 7 8 7 9 5 5 6 5 10 7 4 5 5
0 1 4 3 2 8 8 6 6 7 7 7 8 4 5 6 3 2 5 4 4 7 4 2 1 1 1 4 1 1 4 4 6 10 9 7 6 4 2 5 8 8 9 7 6 6 7
Height
5723 5713 5702 5690 5678 5668 5660 5653 5646 5638 5633 5631 5627 5625 5630 5626 5623 5625 5629 5636 5643 5650 5657 5666 5674 5683 5695 5709 5723 5737 5752 5764 5774 5783 5793 5800 5807 5813 5816 5821 5825 5829 5833 5836 5840 5844 5846
5726 5716 5706 5696 5685 5675 5666 5658 5652 5646 5639 5635 5635 5634 5635 5631 5628 5630 5632 5638 5645 5652 5659 5667 5673 5683 5696 5710 5724 5738 5752 5763 5773 5782 5790 5797 5803 5810 5814 5818 5823 5828 5831 5834 5838 5841 5843
5729 5721 5711 5702 5693 5683 5674 5665 5658 5654 5646 5645 5644 5644 5640 5637 5638 5638 5638 5641 5645 5652 5660 5669 5677 5689 5700 5712 5725 5739 5752 5763 5772 5780 5788 5795 5801 5808 5813 5817 5821 5825 5829 5832 5835 5838 5841
5733 5726 5717 5708 5700 5691 5683 5674 5667 5661 5657 5654 5652 5648 5647 5646 5645 5643 5644 5647 5652 5657 5665 5673 5684 5694 5707 5714 5727 5740 5753 5763 5772 5780 5787 5794 5800 5806 5811 5816 5820 5823 5827 5830 5833 5835 5837
5738 5730 5723 5715 5707 5700 5692 5685 5679 5672 5666 5663 5660 5657 5654 5654 5653 5652 5654 5657 5661 5666 5673 5682 5691 5701 5711 5717 5730 5743 5755 5765 5773 5781 5787 5794 5799 5805 5810 5814 5818 5821 5825 5828 5830 5832 5833
5743 5736 5729 5722 5714 5707 5701 5695 5688 5684 5678 5673 5669 5665 5664 5664 5663 5663 5664 5666 5670 5676 5683 5690 5698 5707 5714 5723 5735 5747 5758 5767 5775 5781 5788 5794 5799 5803 5808 5812 5816 5819 5822 5825 5827 5829 5829
5748 5741 5735 5729 5722 5716 5709 5703 5698 5693 5688 5683 5679 5675 5673 5672 5673 5674 5675 5678 5683 5688 5692 5698 5704 5712 5720 5730 5740 5751 5760 5769 5776 5782 5788 5793 5798 5803 5807 5810 5814 5816 5819 5821 5822 5824 5825
5753 5747 5741 5734 5729 5724 5717 5711 5706 5701 5696 5691 5687 5685 5683 5681 5682 5684 5686 5689 5693 5699 5702 5706 5711 5718 5727 5736 5746 5755 5764 5772 5778 5783 5788 5794 5797 5802 5805 5808 5811 5813 5816 5817 5818 5819 5819
5759 5752 5747 5741 5735 5730 5725 5720 5715 5710 5705 5701 5697 5694 5692 5692 5692 5695 5697 5699 5702 5707 5710 5715 5720 5727 5735 5743 5751 5758 5767 5773 5779 5785 5789 5793 5798 5801 5804 5806 5808 5810 5812 5813 5814 5813 5813
5764 5759 5753 5746 5741 5736 5732 5727 5723 5719 5715 5711 5708 5705 5703 5703 5704 5704 5707 5709 5712 5715 5720 5725 5729 5735 5741 5748 5755 5762 5769 5776 5781 5785 5789 5793 5796 5799 5801 5803 5806 5807 5807 5808 5808 5808 5807
5768 5764 5759 5753 5747 5743 5738 5733 5729 5726 5723 5720 5717 5715 5713 5712 5713 5713 5716 5719 5722 5725 5728 5733 5736 5741 5747 5754 5760 5765 5771 5776 5780 5784 5789 5792 5794 5796 5798 5800 5802 5803 5803 5803 5802 5801 5800
5772 5768 5763 5758 5754 5749 5744 5740 5736 5732 5729 5727 5725 5724 5722 5721 5721 5722 5723 5725 5730 5734 5735 5738 5742 5746 5751 5756 5762 5767 5772 5777 5780 5784 5787 5789 5791 5794 5795 5796 5797 5797 5797 5796 5796 5794 5793
5776 5772 5767 5762 5758 5754 5750 5746 5742 5738 5735 5732 5730 5730 5729 5729 5729 5729 5730 5733 5736 5737 5740 5744 5747 5751 5755 5759 5763 5768 5772 5776 5779 5782 5784 5786 5788 5790 5791 5792 5792 5792 5791 5790 5789 5788 5787
5779 5775 5770 5766 5761 5757 5753 5749 5746 5744 5740 5738 5735 5734 5734 5735 5734 5735 5736 5738 5739 5741 5744 5747 5750 5754 5757 5761 5765 5768 5771 5774 5777 5779 5781 5783 5785 5786 5786 5786 5786 5786 5786 5784 5781 5781 5780
5780 5776 5773 5769 5764 5759 5756 5752 5749 5746 5744 5742 5740 5738 5737 5738 5739 5739 5740 5741 5743 5745 5748 5751 5753 5756 5759 5762 5766 5768 5770 5772 5774 5776 5779 5779 5780 5781 5781 5781 5782 5782 5780 5778 5775 5774 5772
5781 5778 5774 5770 5766 5762 5757 5754 5751 5748 5745 5744 5743 5742 5740 5740 5741 5742 5744 5744 5746 5748 5750 5752 5755 5757 5759 5762 5764 5766 5768 5770 5771 5773 5774 5775 5776 5776 5776 5776 5776 5775 5774 5772 5770 5767 5766
5781 5778 5775 5771 5767 5763 5759 5755 5752 5749 5747 5745 5745 5745 5743 5743 5744 5744 5746 5746 5748 5749 5751 5753 5755 5757 5759 5761 5763 5764 5766 5768 5768 5769 5770 5770 5771 5773 5771 5770 5769 5769 5767 5766 5764 5763 5760
5780 5777 5775 5772 5768 5764 5760 5757 5753 5751 5748 5747 5746 5747 5746 5747 5748 5747 5747 5748 5750 5751 5752 5753 5754 5756 5758 5759 5760 5762 5763 5763 5764 5765 5765 5765 5765 5765 5765 5764 5763 5763 5762 5760 5758 5758 5755
5778 5776 5774 5771 5768 5765 5761 5758 5756 5752 5751 5749 5748 5747 5747 5748 5750 5750 5751 5751 5751 5751 5753 5754 5755 5756 5756 5757 5758 5758 5759 5759 5759 5760 5760 5760 5760 5760 5760 5760 5759 5758 5756 5754 5752 5750 5749
5775 5773 5772 5770 5767 5764 5762 5759 5757 5755 5751 5751 5750 5749 5748 5748 5749 5750 5751 5752 5753 5753 5754 5754 5754 5755 5756 5756 5756 5756 5756 5756 5756 5756 5756 5756 5756 5756 5756 5754 5754 5753 5750 5747 5744 5743 5740
5774 5772 5769 5768 5766 5764 5762 5760 5757 5756 5754 5752 5749 5748 5748 5748 5747 5749 5749 5750 5751 5753 5753 5754 5754 5754 5754 5754 5754 5754 5754 5753 5753 5753 5752 5752 5752 5750 5748 5746 5746 5746 5744 5739 5737 5734 5729
5770 5769 5766 5764 5764 5763 5762 5760 5758 5756 5755 5755 5752 5750 5747 5748 5749 5747 5747 5747 5747 5748 5749 5750 5751 5751 5751 5750 5750 5749 5749 5748 5748 5747 5746 5745 5744 5743 5743 5738 5736 5738 5737 5730 5728 5725 5719
5764 5764 5763 5762 5761 5760 5760 5759 5758 5756 5754 5753 5753 5752 5751 5749 5747 5748 5747 5746 5745 5745 5746 5745 5744 5744 5744 5744 5744 5744 5744 5742 5741 5739 5737 5737 5734 5732 5733 5730 5724 5728 5728 5722 5717 5712 5708
5757 5758 5758 5757 5757 5757 5756 5755 5754 5754 5754 5753 5752 5750 5749 5749 5748 5747 5746 5746 5745 5744 5742 5742 5742 5740 5740 5738 5737 5736 5735 5734 5734 5732 5730 5728 5724 5720 5719 5718 5715 5716 5714 5710 5707 5703 5698
5749 5751 5751 5751 5750 5750 5751 5751 5750 5748 5748 5747 5747 5748 5747 5746 5745 5744 5743 5742 5741 5741 5740 5739 5737 5735 5734 5733 5732 5730 5729 5727 5726 5724 5722 5720 5716 5713 5709 5708 5706 5707 5703 5699 5695 5693 5690
5740 5741 5742 5743 5742 5741 5742 5742 5742 5743 5741 5741 5740 5739 5740 5740 5741 5741 5739 5737 5735 5735 5734 5733 5732 5731 5729 5727 5724 5722 5721 5719 5717 5715 5714 5710 5707 5704 5699 5694 5692 5694 5691 5687 5684 5680 5679
5731 5732 5733 5733 5734 5733 5733 5732 5732 5732 5733 5732 5732 5732 5731 5730 5730 5731 5730 5730 5729 5728 5726 5725 5724 5722 5720 5718 5717 5715 5713 5710 5706 5705 5704 5701 5696 5692 5687 5680 5679 5679 5673 5669 5668 5668 5661
5721 5721 5723 5723 5724 5723 5723 5723 5724 5722 5722 5723 5723 5723 5721 5722 5721 5720 5720 5721 5719 5718 5717 5716 5715 5713 5710 5708 5705 5702 5698 5698 5696 5694 5690 5687 5683 5679 5674 5669 5665 5662 5656 5653 5648 5644 5642
5707 5708 5709 5711 5711 5712 5711 5712 5712 5713 5712 5712 5712 5712 5712 5711 5712 5710 5710 5710 5709 5707 5705 5704 5702 5700 5696 5694 5692 5688 5686 5682 5680 5678 5676 5672 5669 5664 5661 5657 5649 5644 5639 5634 5630 5627 5624